Weather History for Asheville, NC

Change the Weather History Date:

Wednesday, November 14, 2007

  Actual Average Record
Temperature  
Mean Temperature 59 °F 48 °F  
Max Temperature 72 °F 59 °F 76 °F (1999)
Min Temperature 46 °F 36 °F 16 °F (1986)
Degree Days  
Heating Degree Days 6 17  
Month to date heating degree days 246 214  
Since 1 July heating degree days 478 549  
Cooling Degree Days 0 0  
Month to date cooling degree days 0 0  
Year to date cooling degree days 984 862  
Growing Degree Days 8 (Base 50)    
Moisture  
Dew Point 48 °F    
Average Humidity 71    
Maximum Humidity 100    
Minimum Humidity 41    
Precipitation  
Precipitation 0.08 in 0.12 in 0.99 in (1957)
Month to date precipitation 0.09 1.52  
Year to date precipitation 28.93 39.85  
Snow  
Snow 0.00 in 0.00 in 2.50 in (1906)
Month to date snowfall 0.0 0.0  
Since 1 July snowfall 0.0 0.0  
Since 1 September snowfall 0.0 0.0  
Snow Depth -    
Sea Level Pressure  
Sea Level Pressure 29.97 in    
Wind  
Wind Speed 5 mph (West)    
Max Wind Speed 15 mph    
Max Gust Speed 20 mph    
Visibility 4 miles    
Events Fog , Rain    
T = Trace of Precipitation, MM = Missing Value Source: NWS Daily Summary

Daily Weather History Graph

Daily Weather History Graph

Search for Another Location

Airport:

Trip Planner

Search our weather history database for the weather conditions in past years. The results will help you decide how hot, cold, wet, or windy it might be!

Date:

Astronomy

Nov. 14, 2007 Rise Set
Actual Time 7:04 AM EST 5:24 PM EST
Civil Twilight 6:37 AM EST 5:51 PM EST
Nautical Twilight 6:06 AM EST 6:22 PM EST
Astronomical Twilight 5:36 AM EST 6:52 PM EST
Moon 11:22 AM EST (11/14) 8:58 PM EST (11/14)
Length of Visible Light 11h 14m
Length of Day
10h 20m
Waxing Crescent, 19% of the Moon is Illuminated
Nov 14
Waxing Crescent
Nov 17
First Quarter
Nov 24
Full
Dec 1
Last Quarter
Dec 9
New

Hourly Weather History & Observations

Time (EST) Temp. Windchill Dew Point Humidity Pressure Visibility Wind Dir Wind Speed Gust Speed Precip Events Conditions
12:06 AM 48.2 °F - 46.4 °F 93% 30.05 in 1.2 mi Calm Calm - N/A   Clear
12:08 AM 48.2 °F - 46.4 °F 93% 30.05 in 2.0 mi Calm Calm - N/A   Partly Cloudy
12:16 AM 50.0 °F - 46.4 °F 87% 30.04 in 5.0 mi Calm Calm - N/A   Scattered Clouds
12:49 AM 48.2 °F - 48.2 °F 100% 30.04 in 3.0 mi Calm Calm - N/A   Overcast
12:54 AM 48.9 °F - 48.0 °F 97% 30.00 in 4.0 mi Calm Calm - N/A   Overcast
1:50 AM 48.2 °F - 46.4 °F 93% 30.03 in 1.2 mi WNW 3.5 mph - N/A   Mostly Cloudy
1:54 AM 48.0 °F - 46.0 °F 93% 29.99 in 0.5 mi West 3.5 mph - N/A Fog Fog
2:02 AM 48.2 °F - 46.4 °F 93% 30.02 in 0.2 mi Calm Calm - N/A Fog Fog
2:12 AM 46.4 °F - 44.6 °F 93% 30.02 in 1.0 mi Calm Calm - N/A   Overcast
2:15 AM 46.4 °F 44.3 °F 44.6 °F 93% 30.01 in 2.0 mi South 4.6 mph - N/A   Overcast
2:22 AM 46.4 °F 43.5 °F 44.6 °F 93% 30.03 in 1.8 mi North 5.8 mph - N/A   Overcast
2:30 AM 48.2 °F - 46.4 °F 93% 30.03 in 2.0 mi Calm Calm - N/A   Mostly Cloudy
2:38 AM 48.2 °F - 46.4 °F 93% 30.02 in 1.5 mi North 3.5 mph - N/A   Mostly Cloudy
2:43 AM 46.4 °F 43.5 °F 46.4 °F 100% 30.02 in 1.0 mi WNW 5.8 mph - N/A   Overcast
2:54 AM 48.0 °F - 46.9 °F 96% 29.99 in 1.2 mi Calm Calm - N/A   Overcast
3:22 AM 46.4 °F - 46.4 °F 100% 30.02 in 0.8 mi Calm Calm - N/A   Mist
3:54 AM 48.0 °F - 46.9 °F 96% 29.98 in 0.2 mi North 3.5 mph - N/A Fog Fog
4:04 AM 48.2 °F - 46.4 °F 93% 30.01 in 0.5 mi Calm Calm - N/A Fog Fog
4:17 AM 48.2 °F - 46.4 °F 93% 30.01 in 0.2 mi NNW 4.6 mph - N/A Fog Fog
4:27 AM 48.2 °F - 46.4 °F 93% 30.01 in 0.5 mi Calm Calm - N/A Fog Fog
4:54 AM 48.0 °F - 46.0 °F 93% 29.98 in 0.2 mi North 4.6 mph - N/A Fog Fog
5:43 AM 48.2 °F - 46.4 °F 93% 30.02 in 0.8 mi NNW 3.5 mph - N/A   Overcast
5:45 AM 48.2 °F - 46.4 °F 93% 30.01 in 1.2 mi Calm Calm - N/A   Overcast
5:48 AM 48.2 °F - 46.4 °F 93% 30.01 in 2.0 mi North 3.5 mph - N/A   Overcast
5:54 AM 48.9 °F - 46.9 °F 93% 29.99 in 6.0 mi North 3.5 mph - N/A   Overcast
6:42 AM 46.4 °F 45.2 °F 46.4 °F 100% 30.02 in 1.5 mi South 3.5 mph - N/A   Overcast
6:45 AM 46.4 °F - 46.4 °F 100% 30.02 in 0.8 mi Calm Calm - N/A   Overcast
6:54 AM 46.9 °F - 46.0 °F 97% 30.00 in 0.5 mi South 3.5 mph - N/A Fog Fog
7:03 AM 46.4 °F - 46.4 °F 100% 30.02 in 0.5 mi Calm Calm - N/A Fog Fog
7:23 AM 48.2 °F - 46.4 °F 93% 30.02 in 1.5 mi Calm Calm - N/A   Overcast
7:26 AM 48.2 °F - 46.4 °F 93% 30.02 in 2.5 mi Calm Calm - N/A   Overcast
7:33 AM 48.2 °F - 46.4 °F 93% 30.02 in 4.0 mi North 4.6 mph - N/A   Mostly Cloudy
7:54 AM 48.9 °F - 46.9 °F 93% 30.00 in 5.0 mi WNW 4.6 mph - N/A   Overcast
8:32 AM 50.0 °F - 48.2 °F 94% 30.03 in 3.0 mi NW 3.5 mph - N/A   Scattered Clouds
8:54 AM 51.1 °F - 48.9 °F 92% 30.00 in 4.0 mi Calm Calm - N/A   Partly Cloudy
9:54 AM 60.1 °F - 51.1 °F 72% 29.98 in 8.0 mi NNE 4.6 mph - N/A   Clear
10:54 AM 63.0 °F - 51.1 °F 65% 29.97 in 10.0 mi Calm Calm - N/A   Mostly Cloudy
11:54 AM 66.0 °F - 51.1 °F 59% 29.94 in 10.0 mi Variable 3.5 mph - N/A   Mostly Cloudy
12:54 PM 66.0 °F - 52.0 °F 60% 29.92 in 10.0 mi South 3.5 mph - N/A   Mostly Cloudy
1:54 PM 70.0 °F - 51.1 °F 51% 29.89 in 9.0 mi SSE 8.1 mph - N/A   Clear
2:54 PM 71.1 °F - 51.1 °F 49% 29.87 in 7.0 mi Calm Calm - N/A   Scattered Clouds
3:54 PM 71.1 °F - 46.9 °F 42% 29.86 in 10.0 mi SW 6.9 mph - N/A   Partly Cloudy
4:54 PM 66.9 °F - 51.1 °F 57% 29.86 in 10.0 mi South 6.9 mph - N/A   Clear
5:54 PM 64.0 °F - 52.0 °F 65% 29.85 in 10.0 mi South 6.9 mph - N/A   Clear
6:54 PM 66.0 °F - 53.1 °F 63% 29.87 in 10.0 mi South 10.4 mph 18.4 mph N/A   Mostly Cloudy
7:54 PM 66.0 °F - 53.1 °F 63% 29.84 in 10.0 mi SSW 12.7 mph - N/A   Overcast
8:54 PM 64.0 °F - 55.0 °F 73% 29.84 in 10.0 mi SSW 9.2 mph 17.3 mph 0.00 in Rain Light Rain
9:54 PM 62.1 °F - 55.9 °F 80% 29.83 in 10.0 mi SSW 9.2 mph - 0.00 in   Overcast
10:54 PM 61.0 °F - 55.0 °F 81% 29.79 in 10.0 mi SSW 9.2 mph - 0.00 in   Mostly Cloudy
11:54 PM 60.1 °F - 55.9 °F 86% 29.78 in 5.0 mi SSW 10.4 mph - 0.06 in Rain Rain